05-03-2022, 00:00:03,    326,    0.1,    1.9,   0.00,   0.00, 1018.0,   84.1, -999.0
05-03-2022, 00:00:13,    325,    0.0,    1.8,   0.00,   0.00, 1017.9,   84.0, -999.0
05-03-2022, 00:00:23,    325,    0.0,    1.8,   0.00,   0.00, 1017.9,   84.0, -999.0
05-03-2022, 00:00:33,    326,    0.0,    1.8,   0.00,   0.00, 1017.9,   83.9, -999.0
05-03-2022, 00:00:43,    325,    0.0,    1.9,   0.00,   0.00, 1017.9,   83.9, -999.0
05-03-2022, 00:00:53,    325,    0.0,    1.8,   0.00,   0.00, 1017.9,   84.0, -999.0
05-03-2022, 00:01:02,    327,    0.0,    1.8,   0.00,   0.00, 1017.9,   84.0, -999.0
05-03-2022, 00:01:13,    317,    1.2,    1.8,   0.00,   0.00, 1018.1,   84.2, -999.0
05-03-2022, 00:01:23,    348,    1.0,    1.9,   0.00,   0.00, 1018.1,   84.4, -999.0
05-03-2022, 00:01:32,    317,    0.3,    1.9,   0.00,   0.00, 1018.1,   84.3, -999.0
05-03-2022, 00:01:42,    317,    0.3,    2.0,   0.00,   0.00, 1018.0,   84.3, -999.0
05-03-2022, 00:01:53,    317,    0.3,    1.9,   0.00,   0.00, 1018.0,   84.3, -999.0
05-03-2022, 00:02:02,    352,    0.3,    1.9,   0.00,   0.00, 1018.0,   84.2, -999.0
05-03-2022, 00:02:12,    310,    0.4,    1.9,   0.00,   0.00, 1018.1,   84.3, -999.0
05-03-2022, 00:02:22,    310,    0.0,    1.9,   0.00,   0.00, 1018.0,   84.1, -999.0
05-03-2022, 00:02:32,    309,    0.0,    1.8,   0.00,   0.00, 1018.0,   83.9, -999.0
05-03-2022, 00:02:42,    310,    0.0,    1.8,   0.00,   0.00, 1017.9,   83.9, -999.0
05-03-2022, 00:02:52,    310,    0.1,    1.8,   0.00,   0.00, 1018.0,   84.1, -999.0
05-03-2022, 00:03:02,    310,    0.8,    2.0,   0.00,   0.00, 1018.1,   84.5, -999.0
05-03-2022, 00:03:12,    310,    0.0,    1.9,   0.00,   0.00, 1018.0,   84.2, -999.0
05-03-2022, 00:03:22,    310,    0.0,    1.9,   0.00,   0.00, 1017.9,   83.9, -999.0
05-03-2022, 00:03:32,    310,    0.0,    1.8,   0.00,   0.00, 1018.0,   84.0, -999.0
05-03-2022, 00:03:42,    333,    0.4,    1.8,   0.00,   0.00, 1018.1,   84.3, -999.0
05-03-2022, 00:03:52,    333,    0.0,    1.8,   0.00,   0.00, 1017.9,   84.1, -999.0
05-03-2022, 00:04:02,    334,    0.0,    1.9,   0.00,   0.00, 1018.0,   84.2, -999.0
05-03-2022, 00:04:12,    333,    0.1,    1.9,   0.00,   0.00, 1018.0,   84.1, -999.0
05-03-2022, 00:04:22,    333,    0.0,    1.8,   0.00,   0.00, 1018.0,   84.1, -999.0
05-03-2022, 00:04:32,    334,    0.1,    1.9,   0.00,   0.00, 1018.1,   84.3, -999.0
05-03-2022, 00:04:41,    339,    0.7,    1.9,   0.00,   0.00, 1018.1,   84.3, -999.0
05-03-2022, 00:04:54,    343,    1.2,    1.9,   0.00,   0.00, 1018.1,   84.5, -999.0
05-03-2022, 00:05:02,    343,    0.1,    1.9,   0.00,   0.00, 1018.0,   84.3, -999.0
05-03-2022, 00:05:11,    343,    0.5,    1.9,   0.00,   0.00, 1018.1,   84.4, -999.0
05-03-2022, 00:05:21,    343,    0.1,    1.9,   0.00,   0.00, 1018.0,   84.3, -999.0
05-03-2022, 00:05:32,    343,    0.0,    1.8,   0.00,   0.00, 1018.0,   84.2, -999.0
05-03-2022, 00:05:41,    343,    0.0,    1.8,   0.00,   0.00, 1017.9,   84.2, -999.0
05-03-2022, 00:05:51,    342,    0.0,    1.8,   0.00,   0.00, 1018.0,   84.3, -999.0
05-03-2022, 00:06:01,    343,    0.2,    1.9,   0.00,   0.00, 1018.0,   84.4, -999.0
05-03-2022, 00:06:11,    343,    0.0,    1.8,   0.00,   0.00, 1018.0,   84.2, -999.0
05-03-2022, 00:06:21,    343,    0.0,    1.9,   0.00,   0.00, 1018.0,   84.3, -999.0
05-03-2022, 00:06:31,    343,    0.9,    2.0,   0.00,   0.00, 1018.1,   84.5, -999.0
05-03-2022, 00:06:41,    339,    2.1,    2.0,   0.00,   0.00, 1018.1,   84.6, -999.0
05-03-2022, 00:06:51,    351,    1.9,    1.9,   0.00,   0.00, 1018.1,   84.5, -999.0
05-03-2022, 00:07:01,    351,    0.3,    1.8,   0.00,   0.00, 1018.0,   84.1, -999.0
05-03-2022, 00:07:11,    351,    1.0,    1.9,   0.00,   0.00, 1018.1,   84.4, -999.0
05-03-2022, 00:07:21,    349,    2.9,    1.9,   0.00,   0.00, 1018.2,   84.4, -999.0
05-03-2022, 00:07:31,    347,    1.8,    1.8,   0.00,   0.00, 1018.1,   84.5, -999.0
05-03-2022, 00:07:41,    347,    0.6,    1.8,   0.00,   0.00, 1018.1,   84.4, -999.0
05-03-2022, 00:07:50,    347,    0.4,    1.8,   0.00,   0.00, 1018.0,   84.3, -999.0
05-03-2022, 00:08:01,    344,    1.4,    1.9,   0.00,   0.00, 1018.1,   84.7, -999.0
05-03-2022, 00:08:11,    334,    1.1,    2.0,   0.00,   0.00, 1018.1,   84.7, -999.0
05-03-2022, 00:08:20,    334,    0.0,    1.8,   0.00,   0.00, 1018.0,   84.6, -999.0
05-03-2022, 00:08:31,    333,    0.3,    1.9,   0.00,   0.00, 1018.1,   84.8, -999.0
05-03-2022, 00:08:41,    333,    0.0,    1.9,   0.00,   0.00, 1018.0,   84.6, -999.0
05-03-2022, 00:08:50,    333,    0.0,    1.8,   0.00,   0.00, 1018.0,   84.6, -999.0
05-03-2022, 00:09:00,    334,    0.7,    1.9,   0.00,   0.00, 1018.1,   84.7, -999.0
05-03-2022, 00:09:10,    334,    0.1,    1.9,   0.00,   0.00, 1018.0,   84.5, -999.0
05-03-2022, 00:09:20,    333,    0.0,    1.8,   0.00,   0.00, 1018.0,   84.4, -999.0
05-03-2022, 00:09:30,    334,    0.3,    1.8,   0.00,   0.00, 1018.1,   84.6, -999.0
05-03-2022, 00:09:40,    333,    0.2,    1.8,   0.00,   0.00, 1018.1,   84.5, -999.0
05-03-2022, 00:09:50,    333,    0.0,    1.8,   0.00,   0.00, 1018.0,   84.3, -999.0
05-03-2022, 00:10:00,    333,    0.0,    1.7,   0.00,   0.00, 1018.0,   84.3, -999.0
05-03-2022, 00:10:10,    333,    0.0,    1.8,   0.00,   0.00, 1018.0,   84.4, -999.0
05-03-2022, 00:10:20,    333,    0.0,    1.7,   0.00,   0.00, 1017.9,   84.4, -999.0
05-03-2022, 00:10:30,    333,    0.0,    1.8,   0.00,   0.00, 1018.0,   84.5, -999.0
05-03-2022, 00:10:40,    333,    0.0,    1.8,   0.00,   0.00, 1018.0,   84.4, -999.0
05-03-2022, 00:10:50,    333,    0.0,    1.8,   0.00,   0.00, 1018.0,   84.3, -999.0
05-03-2022, 00:11:00,    333,    0.0,    1.9,   0.00,   0.00, 1017.9,   84.6, -999.0
05-03-2022, 00:11:10,    333,    0.0,    1.9,   0.00,   0.00, 1017.9,   84.5, -999.0
05-03-2022, 00:11:20,    333,    0.0,    1.9,   0.00,   0.00, 1018.0,   84.6, -999.0
05-03-2022, 00:11:29,    333,    0.0,    1.9,   0.00,   0.00, 1018.0,   84.5, -999.0
05-03-2022, 00:11:40,    333,    0.0,    1.8,   0.00,   0.00, 1017.9,   84.4, -999.0
05-03-2022, 00:11:50,    333,    0.0,    1.9,   0.00,   0.00, 1017.9,   84.3, -999.0
05-03-2022, 00:11:59,    333,    0.0,    1.8,   0.00,   0.00, 1017.9,   84.4, -999.0
05-03-2022, 00:12:09,    333,    0.0,    1.8,   0.00,   0.00, 1018.0,   84.4, -999.0
05-03-2022, 00:12:20,    333,    0.0,    1.9,   0.00,   0.00, 1018.0,   84.6, -999.0
05-03-2022, 00:12:29,    333,    0.0,    1.9,   0.00,   0.00, 1018.0,   84.4, -999.0
05-03-2022, 00:12:39,    333,    0.0,    1.8,   0.00,   0.00, 1017.9,   84.4, -999.0
05-03-2022, 00:12:49,    333,    0.0,    1.8,   0.00,   0.00, 1018.0,   84.4, -999.0
05-03-2022, 00:12:59,    333,    0.2,    1.9,   0.00,   0.00, 1018.0,   84.7, -999.0
05-03-2022, 00:13:09,    333,    0.0,    1.9,   0.00,   0.00, 1018.0,   84.6, -999.0
05-03-2022, 00:13:19,    333,    0.3,    2.0,   0.00,   0.00, 1018.1,   84.6, -999.0
05-03-2022, 00:13:29,    333,    0.3,    1.9,   0.00,   0.00, 1018.0,   84.6, -999.0
05-03-2022, 00:13:39,    333,    0.8,    1.9,   0.00,   0.00, 1018.1,   84.6, -999.0
05-03-2022, 00:13:49,    333,    0.9,    1.8,   0.00,   0.00, 1018.1,   84.5, -999.0
05-03-2022, 00:13:59,    333,    0.2,    1.9,   0.00,   0.00, 1018.0,   84.6, -999.0
05-03-2022, 00:14:09,    333,    0.2,    1.8,   0.00,   0.00, 1018.1,   84.5, -999.0
05-03-2022, 00:14:19,    333,    0.0,    1.8,   0.00,   0.00, 1017.9,   84.4, -999.0
05-03-2022, 00:14:29,    333,    0.0,    1.8,   0.00,   0.00, 1017.9,   84.3, -999.0
05-03-2022, 00:14:38,    333,    0.0,    1.7,   0.00,   0.00, 1017.9,   84.3, -999.0
05-03-2022, 00:14:49,    333,    0.0,    1.8,   0.00,   0.00, 1017.9,   84.4, -999.0
05-03-2022, 00:14:59,    333,    0.1,    1.8,   0.00,   0.00, 1018.0,   84.7, -999.0
05-03-2022, 00:15:08,    333,    0.2,    1.8,   0.00,   0.00, 1018.0,   84.7, -999.0
05-03-2022, 00:15:19,    332,    0.0,    1.8,   0.00,   0.00, 1018.0,   84.7, -999.0
05-03-2022, 00:15:29,    333,    0.0,    1.8,   0.00,   0.00, 1017.9,   84.5, -999.0
05-03-2022, 00:15:38,    333,    0.0,    1.8,   0.00,   0.00, 1017.9,   84.4, -999.0
05-03-2022, 00:15:48,    333,    0.0,    1.8,   0.00,   0.00, 1018.0,   84.5, -999.0
05-03-2022, 00:15:59,    356,    0.9,    1.8,   0.00,   0.00, 1018.1,   84.8, -999.0
05-03-2022, 00:16:08,    356,    1.5,    1.9,   0.00,   0.00, 1018.1,   84.8, -999.0
05-03-2022, 00:16:18,    356,    1.6,    1.8,   0.00,   0.00, 1018.1,   84.8, -999.0
05-03-2022, 00:16:28,    356,    1.6,    1.8,   0.00,   0.00, 1018.0,   84.8, -999.0
05-03-2022, 00:16:38,    356,    0.7,    1.8,   0.00,   0.00, 1018.0,   84.7, -999.0
05-03-2022, 00:16:48,    324,    1.9,    1.8,   0.00,   0.00, 1018.0,   84.9, -999.0
05-03-2022, 00:16:58,    337,    1.5,    1.8,   0.00,   0.00, 1018.0,   84.9, -999.0
05-03-2022, 00:17:08,    337,    0.7,    1.8,   0.00,   0.00, 1018.0,   84.8, -999.0
05-03-2022, 00:17:18,    337,    0.1,    1.8,   0.00,   0.00, 1018.0,   84.8, -999.0
05-03-2022, 00:17:28,    352,    1.2,    1.8,   0.00,   0.00, 1018.0,   84.9, -999.0
05-03-2022, 00:17:38,    352,    1.2,    1.8,   0.00,   0.00, 1018.0,   85.0, -999.0
05-03-2022, 00:17:48,    352,    1.0,    1.8,   0.00,   0.00, 1018.0,   85.0, -999.0
05-03-2022, 00:17:58,    352,    1.5,    1.8,   0.00,   0.00, 1018.0,   85.0, -999.0
05-03-2022, 00:18:08,    352,    0.7,    1.8,   0.00,   0.00, 1018.0,   84.9, -999.0
05-03-2022, 00:18:17,    352,    0.8,    1.8,   0.00,   0.00, 1018.0,   85.0, -999.0
05-03-2022, 00:18:28,    351,    0.8,    1.7,   0.00,   0.00, 1018.0,   85.0, -999.0
05-03-2022, 00:18:38,    351,    0.3,    1.8,   0.00,   0.00, 1018.0,   84.9, -999.0
05-03-2022, 00:18:47,    351,    0.3,    1.8,   0.00,   0.00, 1018.0,   84.9, -999.0
05-03-2022, 00:18:58,    351,    0.3,    1.7,   0.00,   0.00, 1018.1,   85.0, -999.0
05-03-2022, 00:19:07,    351,    1.0,    1.8,   0.00,   0.00, 1018.0,   85.1, -999.0
05-03-2022, 00:19:17,    351,    0.7,    1.9,   0.00,   0.00, 1018.1,   85.2, -999.0
05-03-2022, 00:19:27,    351,    0.3,    1.8,   0.00,   0.00, 1018.0,   85.0, -999.0
05-03-2022, 00:19:37,    351,    0.7,    1.9,   0.00,   0.00, 1018.0,   85.2, -999.0
05-03-2022, 00:19:47,    351,    0.2,    1.8,   0.00,   0.00, 1018.0,   85.1, -999.0
05-03-2022, 00:19:57,    351,    0.0,    1.7,   0.00,   0.00, 1017.9,   84.8, -999.0
05-03-2022, 00:20:07,    351,    0.9,    1.8,   0.00,   0.00, 1018.0,   85.2, -999.0
05-03-2022, 00:20:17,    351,    0.2,    1.8,   0.00,   0.00, 1018.0,   85.1, -999.0
05-03-2022, 00:20:27,    351,    0.0,    1.8,   0.00,   0.00, 1018.0,   85.0, -999.0
05-03-2022, 00:20:37,    351,    0.0,    1.8,   0.00,   0.00, 1017.9,   84.8, -999.0
05-03-2022, 00:20:47,    351,    0.0,    1.7,   0.00,   0.00, 1017.9,   84.9, -999.0
05-03-2022, 00:20:57,    351,    0.1,    1.7,   0.00,   0.00, 1018.0,   85.0, -999.0
05-03-2022, 00:21:07,    351,    0.2,    1.7,   0.00,   0.00, 1018.0,   85.0, -999.0
05-03-2022, 00:21:17,    351,    0.0,    1.7,   0.00,   0.00, 1017.9,   84.8, -999.0
05-03-2022, 00:21:27,    351,    0.0,    1.7,   0.00,   0.00, 1017.9,   84.8, -999.0
05-03-2022, 00:21:37,    351,    0.0,    1.7,   0.00,   0.00, 1017.9,   84.8, -999.0
05-03-2022, 00:21:47,    351,    0.0,    1.7,   0.00,   0.00, 1017.9,   85.0, -999.0
05-03-2022, 00:21:56,    351,    0.0,    1.7,   0.00,   0.00, 1017.9,   85.0, -999.0
05-03-2022, 00:22:07,    351,    0.0,    1.8,   0.00,   0.00, 1017.9,   85.0, -999.0
05-03-2022, 00:22:17,    351,    0.3,    1.8,   0.00,   0.00, 1018.0,   85.2, -999.0
05-03-2022, 00:22:26,    351,    1.2,    1.9,   0.00,   0.00, 1018.1,   85.2, -999.0
05-03-2022, 00:22:36,    351,    0.7,    1.9,   0.00,   0.00, 1018.1,   85.2, -999.0
05-03-2022, 00:22:46,    351,    1.1,    1.8,   0.00,   0.00, 1018.1,   85.3, -999.0
05-03-2022, 00:22:56,    351,    1.0,    1.8,   0.00,   0.00, 1018.1,   85.2, -999.0
05-03-2022, 00:23:06,    351,    0.0,    1.7,   0.00,   0.00, 1018.0,   85.0, -999.0
05-03-2022, 00:23:16,    351,    0.3,    1.6,   0.00,   0.00, 1018.1,   85.0, -999.0
05-03-2022, 00:23:26,    351,    0.0,    1.7,   0.00,   0.00, 1018.0,   84.9, -999.0
05-03-2022, 00:23:36,    351,    0.2,    1.7,   0.00,   0.00, 1018.0,   85.0, -999.0
05-03-2022, 00:23:46,    351,    0.0,    1.7,   0.00,   0.00, 1018.0,   84.8, -999.0
05-03-2022, 00:23:56,    351,    0.0,    1.7,   0.00,   0.00, 1018.0,   84.7, -999.0
05-03-2022, 00:24:06,    351,    0.0,    1.7,   0.00,   0.00, 1018.0,   84.9, -999.0
05-03-2022, 00:24:16,    351,    0.0,    1.7,   0.00,   0.00, 1018.0,   84.9, -999.0
05-03-2022, 00:24:26,    351,    0.0,    1.8,   0.00,   0.00, 1018.0,   84.9, -999.0
05-03-2022, 00:24:36,    351,    0.0,    1.7,   0.00,   0.00, 1018.0,   85.1, -999.0
05-03-2022, 00:24:46,    351,    0.0,    1.7,   0.00,   0.00, 1018.0,   85.0, -999.0
05-03-2022, 00:24:56,    351,    0.0,    1.6,   0.00,   0.00, 1017.9,   85.1, -999.0
05-03-2022, 00:25:06,    351,    0.0,    1.7,   0.00,   0.00, 1018.0,   85.1, -999.0
05-03-2022, 00:25:16,    351,    0.0,    1.7,   0.00,   0.00, 1018.0,   85.2, -999.0
05-03-2022, 00:25:26,    351,    0.0,    1.8,   0.00,   0.00, 1017.9,   85.1, -999.0
05-03-2022, 00:25:35,    351,    0.1,    1.7,   0.00,   0.00, 1018.0,   85.1, -999.0
05-03-2022, 00:25:46,    351,    0.2,    1.8,   0.00,   0.00, 1018.0,   85.2, -999.0
05-03-2022, 00:25:56,    351,    0.5,    1.8,   0.00,   0.00, 1018.1,   85.5, -999.0
05-03-2022, 00:26:05,    351,    0.4,    1.8,   0.00,   0.00, 1018.1,   85.3, -999.0
05-03-2022, 00:26:15,    351,    0.1,    1.7,   0.00,   0.00, 1018.0,   85.4, -999.0
05-03-2022, 00:26:25,    351,    0.1,    1.8,   0.00,   0.00, 1018.0,   85.3, -999.0
05-03-2022, 00:26:35,    351,    0.0,    1.7,   0.00,   0.00, 1018.0,   85.1, -999.0
05-03-2022, 00:26:45,    351,    0.0,    1.8,   0.00,   0.00, 1018.0,   85.2, -999.0
05-03-2022, 00:26:55,    351,    0.0,    1.6,   0.00,   0.00, 1017.9,   85.1, -999.0
05-03-2022, 00:27:05,    299,    0.3,    1.7,   0.00,   0.00, 1018.0,   85.3, -999.0
05-03-2022, 00:27:15,    327,    0.9,    1.8,   0.00,   0.00, 1018.1,   85.5, -999.0
05-03-2022, 00:27:25,    317,    0.6,    1.8,   0.00,   0.00, 1018.1,   85.5, -999.0
05-03-2022, 00:27:35,    318,    0.2,    1.8,   0.00,   0.00, 1018.1,   85.5, -999.0
05-03-2022, 00:27:45,    358,    0.2,    1.8,   0.00,   0.00, 1018.0,   85.3, -999.0
05-03-2022, 00:27:55,    358,    0.1,    1.8,   0.00,   0.00, 1018.0,   85.3, -999.0
05-03-2022, 00:28:05,    358,    0.2,    1.8,   0.00,   0.00, 1018.0,   85.4, -999.0
05-03-2022, 00:28:15,    358,    0.5,    1.8,   0.00,   0.00, 1018.1,   85.3, -999.0
05-03-2022, 00:28:25,    358,    0.0,    1.8,   0.00,   0.00, 1018.0,   85.1, -999.0
05-03-2022, 00:28:35,    358,    0.2,    1.8,   0.00,   0.00, 1018.0,   85.3, -999.0
05-03-2022, 00:28:44,    359,    0.1,    1.8,   0.00,   0.00, 1018.0,   85.3, -999.0
05-03-2022, 00:28:55,    359,    0.6,    1.8,   0.00,   0.00, 1018.0,   85.3, -999.0
05-03-2022, 00:29:05,    358,    0.8,    1.8,   0.00,   0.00, 1018.1,   85.4, -999.0
05-03-2022, 00:29:14,    359,    1.5,    1.7,   0.00,   0.00, 1018.1,   85.3, -999.0
05-03-2022, 00:29:25,    358,    1.0,    1.7,   0.00,   0.00, 1018.1,   85.4, -999.0
05-03-2022, 00:29:34,    358,    1.0,    1.7,   0.00,   0.00, 1018.1,   85.4, -999.0
05-03-2022, 00:29:44,    358,    0.8,    1.8,   0.00,   0.00, 1018.1,   85.4, -999.0
05-03-2022, 00:29:54,    358,    0.3,    1.7,   0.00,   0.00, 1018.0,   85.3, -999.0
05-03-2022, 00:30:04,    358,    0.1,    1.7,   0.00,   0.00, 1018.0,   85.3, -999.0
05-03-2022, 00:30:14,    358,    0.1,    1.7,   0.00,   0.00, 1018.0,   85.2, -999.0
05-03-2022, 00:30:24,    358,    0.8,    1.9,   0.00,   0.00, 1018.1,   85.6, -999.0
05-03-2022, 00:30:34,    358,    0.7,    1.8,   0.00,   0.00, 1018.1,   85.6, -999.0
05-03-2022, 00:30:44,    358,    0.8,    1.8,   0.00,   0.00, 1018.1,   85.6, -999.0
05-03-2022, 00:30:54,    359,    0.2,    1.7,   0.00,   0.00, 1018.1,   85.4, -999.0
05-03-2022, 00:31:04,    358,    0.0,    1.7,   0.00,   0.00, 1018.0,   85.4, -999.0
05-03-2022, 00:31:14,    326,    0.7,    1.7,   0.00,   0.00, 1018.0,   85.6, -999.0
05-03-2022, 00:31:24,    326,    1.6,    1.8,   0.00,   0.00, 1018.1,   85.7, -999.0
05-03-2022, 00:31:34,    321,    1.5,    1.8,   0.00,   0.00, 1018.1,   85.6, -999.0
05-03-2022, 00:31:44,    320,    0.0,    1.8,   0.00,   0.00, 1018.0,   85.3, -999.0
05-03-2022, 00:31:54,    343,    0.1,    1.7,   0.00,   0.00, 1018.0,   85.2, -999.0
05-03-2022, 00:32:04,    344,    1.2,    1.8,   0.00,   0.00, 1018.1,   85.6, -999.0
05-03-2022, 00:32:14,    330,    2.6,    1.7,   0.00,   0.00, 1018.1,   85.5, -999.0
05-03-2022, 00:32:23,    323,    2.1,    1.7,   0.00,   0.00, 1018.1,   85.5, -999.0
05-03-2022, 00:32:34,    324,    0.7,    1.8,   0.00,   0.00, 1018.1,   85.7, -999.0
05-03-2022, 00:32:44,    338,    1.4,    1.8,   0.00,   0.00, 1018.1,   85.6, -999.0
05-03-2022, 00:32:53,    338,    1.1,    1.8,   0.00,   0.00, 1018.1,   85.6, -999.0
05-03-2022, 00:33:03,    351,    1.3,    1.7,   0.00,   0.00, 1018.1,   85.7, -999.0
05-03-2022, 00:33:14,    351,    0.5,    1.7,   0.00,   0.00, 1018.2,   85.6, -999.0
05-03-2022, 00:33:23,    351,    0.4,    1.7,   0.00,   0.00, 1018.1,   85.7, -999.0
05-03-2022, 00:33:33,    351,    0.4,    1.7,   0.00,   0.00, 1018.1,   85.6, -999.0
05-03-2022, 00:33:43,    351,    0.0,    1.6,   0.00,   0.00, 1018.0,   85.3, -999.0
05-03-2022, 00:33:53,    351,    0.1,    1.7,   0.00,   0.00, 1018.0,   85.5, -999.0
05-03-2022, 00:34:03,    351,    0.1,    1.7,   0.00,   0.00, 1018.0,   85.5, -999.0
05-03-2022, 00:34:13,    351,    0.0,    1.5,   0.00,   0.00, 1018.0,   85.4, -999.0
05-03-2022, 00:34:23,    351,    0.0,    1.6,   0.00,   0.00, 1018.0,   85.4, -999.0
05-03-2022, 00:34:33,    350,    0.0,    1.7,   0.00,   0.00, 1018.0,   85.4, -999.0
05-03-2022, 00:34:43,    351,    0.0,    1.7,   0.00,   0.00, 1017.9,   85.6, -999.0
05-03-2022, 00:34:53,    350,    0.0,    1.7,   0.00,   0.00, 1018.0,   85.5, -999.0
05-03-2022, 00:35:03,    350,    0.0,    1.7,   0.00,   0.00, 1018.0,   85.5, -999.0
05-03-2022, 00:35:13,    348,    0.0,    1.7,   0.00,   0.00, 1018.0,   85.5, -999.0
05-03-2022, 00:35:23,    350,    0.0,    1.6,   0.00,   0.00, 1018.0,   85.4, -999.0
05-03-2022, 00:35:32,    351,    0.2,    1.7,   0.00,   0.00, 1018.0,   85.7, -999.0
05-03-2022, 00:35:43,    351,    0.0,    1.6,   0.00,   0.00, 1018.0,   85.4, -999.0
05-03-2022, 00:35:53,    351,    0.0,    1.6,   0.00,   0.00, 1018.0,   85.4, -999.0
05-03-2022, 00:36:02,    351,    0.0,    1.6,   0.00,   0.00, 1017.9,   85.3, -999.0
05-03-2022, 00:36:13,    350,    0.0,    1.6,   0.00,   0.00, 1018.0,   85.3, -999.0
05-03-2022, 00:36:23,    351,    0.0,    1.5,   0.00,   0.00, 1018.0,   85.3, -999.0
05-03-2022, 00:36:32,    351,    0.0,    1.6,   0.00,   0.00, 1018.0,   85.5, -999.0
05-03-2022, 00:36:42,    351,    0.0,    1.6,   0.00,   0.00, 1017.9,   85.5, -999.0
05-03-2022, 00:36:52,    351,    0.0,    1.7,   0.00,   0.00, 1018.0,   85.6, -999.0
05-03-2022, 00:37:02,    350,    0.3,    1.7,   0.00,   0.00, 1018.1,   85.8, -999.0
05-03-2022, 00:37:12,    350,    0.0,    1.7,   0.00,   0.00, 1018.0,   85.6, -999.0
05-03-2022, 00:37:22,    351,    0.4,    1.7,   0.00,   0.00, 1018.1,   85.8, -999.0
05-03-2022, 00:37:32,    350,    0.0,    1.6,   0.00,   0.00, 1018.0,   85.6, -999.0
05-03-2022, 00:37:42,    351,    0.0,    1.6,   0.00,   0.00, 1018.0,   85.4, -999.0
05-03-2022, 00:37:52,    351,    0.0,    1.6,   0.00,   0.00, 1018.0,   85.7, -999.0
05-03-2022, 00:38:02,    351,    0.2,    1.7,   0.00,   0.00, 1018.1,   85.8, -999.0
05-03-2022, 00:38:12,    351,    0.4,    1.7,   0.00,   0.00, 1018.1,   85.8, -999.0
05-03-2022, 00:38:22,    350,    0.1,    1.5,   0.00,   0.00, 1018.0,   85.9, -999.0
05-03-2022, 00:38:32,    350,    0.0,    1.6,   0.00,   0.00, 1018.0,   85.6, -999.0
05-03-2022, 00:38:42,    350,    0.0,    1.6,   0.00,   0.00, 1018.0,   85.7, -999.0
05-03-2022, 00:38:52,    351,    0.0,    1.7,   0.00,   0.00, 1018.0,   85.7, -999.0
05-03-2022, 00:39:02,    351,    0.0,    1.7,   0.00,   0.00, 1018.0,   85.6, -999.0
05-03-2022, 00:39:11,    351,    0.0,    1.7,   0.00,   0.00, 1018.0,   85.6, -999.0
05-03-2022, 00:39:22,    351,    0.0,    1.6,   0.00,   0.00, 1018.0,   85.7, -999.0
05-03-2022, 00:39:32,    350,    0.0,    1.6,   0.00,   0.00, 1018.0,   85.6, -999.0
05-03-2022, 00:39:41,    351,    0.0,    1.7,   0.00,   0.00, 1018.0,   85.5, -999.0
05-03-2022, 00:39:51,    351,    0.1,    1.7,   0.00,   0.00, 1018.0,   85.7, -999.0
05-03-2022, 00:40:02,    351,    0.0,    1.7,   0.00,   0.00, 1018.0,   85.6, -999.0
05-03-2022, 00:40:11,    351,    0.4,    1.8,   0.00,   0.00, 1018.0,   86.0, -999.0
05-03-2022, 00:40:21,    351,    0.3,    1.7,   0.00,   0.00, 1018.1,   86.1, -999.0
05-03-2022, 00:40:31,    351,    0.7,    1.8,   0.00,   0.00, 1018.1,   86.1, -999.0
05-03-2022, 00:40:41,    351,    1.1,    1.8,   0.00,   0.00, 1018.1,   86.2, -999.0
05-03-2022, 00:40:51,    351,    1.1,    1.8,   0.00,   0.00, 1018.1,   86.1, -999.0
05-03-2022, 00:41:01,    350,    0.0,    1.7,   0.00,   0.00, 1017.9,   85.8, -999.0
05-03-2022, 00:41:11,    350,    0.0,    1.7,   0.00,   0.00, 1017.9,   85.7, -999.0
05-03-2022, 00:41:21,    351,    0.0,    1.7,   0.00,   0.00, 1017.9,   85.7, -999.0
05-03-2022, 00:41:31,    351,    0.0,    1.6,   0.00,   0.00, 1017.9,   85.9, -999.0
05-03-2022, 00:41:41,    351,    1.0,    1.7,   0.00,   0.00, 1018.0,   86.1, -999.0
05-03-2022, 00:41:51,    351,    0.4,    1.7,   0.00,   0.00, 1018.1,   86.0, -999.0
05-03-2022, 00:42:01,    351,    0.0,    1.7,   0.00,   0.00, 1018.0,   85.7, -999.0
05-03-2022, 00:42:11,    350,    0.0,    1.7,   0.00,   0.00, 1017.9,   85.9, -999.0
05-03-2022, 00:42:20,    350,    0.0,    1.6,   0.00,   0.00, 1017.9,   85.8, -999.0
05-03-2022, 00:42:31,    350,    0.0,    1.5,   0.00,   0.00, 1017.9,   85.8, -999.0
05-03-2022, 00:42:41,    351,    0.0,    1.6,   0.00,   0.00, 1017.9,   85.7, -999.0
05-03-2022, 00:42:50,    350,    0.0,    1.6,   0.00,   0.00, 1017.9,   85.7, -999.0
05-03-2022, 00:43:00,    350,    0.0,    1.6,   0.00,   0.00, 1017.9,   85.7, -999.0
05-03-2022, 00:43:11,    351,    0.0,    1.6,   0.00,   0.00, 1017.9,   85.8, -999.0
05-03-2022, 00:43:20,    350,    0.0,    1.6,   0.00,   0.00, 1017.9,   85.8, -999.0
05-03-2022, 00:43:30,    350,    0.0,    1.5,   0.00,   0.00, 1017.9,   85.7, -999.0
05-03-2022, 00:43:41,    350,    0.0,    1.6,   0.00,   0.00, 1017.9,   86.0, -999.0
05-03-2022, 00:43:50,    350,    0.0,    1.6,   0.00,   0.00, 1017.9,   85.9, -999.0
05-03-2022, 00:44:00,    350,    0.0,    1.6,   0.00,   0.00, 1017.9,   85.8, -999.0
05-03-2022, 00:44:10,    350,    0.0,    1.6,   0.00,   0.00, 1017.9,   85.9, -999.0
05-03-2022, 00:44:20,    351,    0.0,    1.6,   0.00,   0.00, 1017.9,   85.7, -999.0
05-03-2022, 00:44:30,    351,    0.0,    1.6,   0.00,   0.00, 1017.9,   85.8, -999.0
05-03-2022, 00:44:40,    350,    0.0,    1.6,   0.00,   0.00, 1017.9,   86.0, -999.0
05-03-2022, 00:44:50,    351,    0.0,    1.7,   0.00,   0.00, 1017.9,   86.0, -999.0
05-03-2022, 00:45:00,    350,    0.0,    1.6,   0.00,   0.00, 1017.9,   86.0, -999.0
05-03-2022, 00:45:10,    350,    0.0,    1.6,   0.00,   0.00, 1017.9,   85.8, -999.0
05-03-2022, 00:45:20,    351,    1.1,    1.6,   0.00,   0.00, 1018.0,   86.2, -999.0
05-03-2022, 00:45:30,    351,    0.9,    1.8,   0.00,   0.00, 1018.0,   86.2, -999.0
05-03-2022, 00:45:40,    350,    0.2,    1.7,   0.00,   0.00, 1018.0,   86.2, -999.0
05-03-2022, 00:45:50,    350,    0.0,    1.6,   0.00,   0.00, 1017.9,   85.9, -999.0
05-03-2022, 00:45:59,    350,    0.0,    1.6,   0.00,   0.00, 1017.9,   85.8, -999.0
05-03-2022, 00:46:10,    351,    0.0,    1.6,   0.00,   0.00, 1017.9,   85.9, -999.0
05-03-2022, 00:46:20,    350,    0.0,    1.7,   0.00,   0.00, 1017.9,   86.1, -999.0
05-03-2022, 00:46:29,    351,    0.0,    1.7,   0.00,   0.00, 1017.9,   86.1, -999.0
05-03-2022, 00:46:39,    350,    0.0,    1.7,   0.00,   0.00, 1017.9,   86.1, -999.0